Content
SEND FEEDBACK

Daily
Averages
Monthly
Summary
United States of America

AGANA, GUAM


Home > North America > United States > Guam
Elevation: 246 feet     Latitude: 13 29N     Longitude: 144 48E

WEATHER
 
SELECT A DAY
Number of Records: 209,044;   Date Range: 1/1/95 - 7/29/14
 
SHARE

PRINT THIS DATA

[ ← Previous Day ]
WEATHER ALMANAC - JUNE 17, 2014
[ Next Day → ]
[ °C ]   °F
Weather ElementAverageHighLow
Temperature82.4 °F88 °F (12:54 pm)78.1 °F (5:54 am)
Dewpoint78 °F79 °F (6:54 am)75.9 °F (1:54 am)
Humidity86.7 %96 % (7:54 pm)70 % (12:54 pm)
Barometer29.85 in29.91 in (10:43 pm)29.80 in (2:54 pm)
Wind Speed4.4 mph10.4 mph (2:32 pm)
Weather ElementAverage
Visibility9.1 mi
Wind DirectionSSE (157.7 °)

Weather ElementTotal
Precipitation0.74 in
Cooling Degree Days18.1 (Base 65)
Growing Degree Days33.1 (Base 50)
Averaged from 30 records on June 17, 2014
WEATHER CONDITIONS BREAKOUT
WIND DIRECTION BREAKOUT
WEATHER BY HOUR - JUNE 17, 2014
[ °C ]   °F
Local TimeTemperatureDewpointHumidityBarometerVisibilityWind DirectionWind SpeedGust SpeedPrecipitationEventsConditions
1:54 AM80.1 °F75.9 °F87 %29.83 in10.0 miCalmClear
2:54 AM79.0 °F75.9 °F90 %29.82 in10.0 miCalmClear
3:54 AM79.0 °F75.9 °F90 %29.83 in10.0 miCalmClear
4:54 AM80.1 °F75.9 °F87 %29.84 in10.0 miCalmClear
5:54 AM78.1 °F75.9 °F93 %29.85 in10.0 miCalmClear
6:54 AM82.9 °F79.0 °F88 %29.86 in10.0 miCalmClear
7:54 AM84.9 °F79.0 °F82 %29.87 in10.0 miWest (280°)4.6 mphClear
8:54 AM82.0 °F77.0 °F85 %29.88 in10.0 miWNW (290°)6.9 mphMostly Cloudy
9:47 AM82.4 °F78.8 °F89 %29.90 in10.0 miWest (280°)6.9 mph0.00 inMostly Cloudy
9:54 AM82.9 °F78.1 °F85 %29.88 in10.0 miWest (270°)8.1 mph0.00 inMostly Cloudy
10:54 AM84.9 °F77.0 °F77 %29.86 in10.0 miCalmPartly Cloudy
11:54 AM87.1 °F78.1 °F74 %29.84 in10.0 miNW (320°)5.8 mphScattered Clouds
12:54 PM88.0 °F77.0 °F70 %29.82 in10.0 miNorth (350°)8.1 mphClear
1:54 PM88.0 °F77.0 °F70 %29.81 in10.0 miNorth (360°)5.8 mph0.00 inMostly Cloudy
2:32 PM87.8 °F78.8 °F75 %29.83 in10.0 miNorth (360°)10.4 mph0.00 inOvercast
2:54 PM84.0 °F79.0 °F85 %29.80 in5.0 miNorth (10°)9.2 mph0.00 inRainHeavy Rain
3:54 PM84.9 °F79.0 °F82 %29.80 in4.0 miNW (310°)8.1 mph0.10 inRainHeavy Rain
4:54 PM87.1 °F79.0 °F77 %29.81 in10.0 miNNW (330°)8.1 mph0.02 inMostly Cloudy
5:54 PM84.0 °F79.0 °F85 %29.82 in9.0 miNNE (20°)8.1 mph0.00 inRainLight Rain
6:32 PM80.6 °F78.8 °F94 %29.85 in2.5 miESE (110°)5.8 mph0.12 inRainHeavy Rain
6:50 PM80.6 °F78.8 °F94 %29.85 in4.0 miEast (80°)4.6 mph0.25 inRainLight Rain
6:54 PM81.0 °F79.0 °F94 %29.83 in7.0 miESE (110°)3.5 mph0.25 inRainLight Rain
7:54 PM80.1 °F79.0 °F96 %29.85 in10.0 miCalm0.00 inOvercast
8:04 PM80.6 °F78.8 °F94 %29.88 in10.0 miCalmOvercast
8:17 PM80.6 °F78.8 °F94 %29.88 in10.0 miNE (40°)9.2 mphOvercast
8:54 PM81.0 °F77.0 °F88 %29.86 in10.0 miCalmMostly Cloudy
9:54 PM80.1 °F78.1 °F94 %29.88 in10.0 miNNW (340°)3.5 mphMostly Cloudy
10:10 PM80.6 °F78.8 °F94 %29.90 in10.0 miWNW (290°)3.5 mphMostly Cloudy
10:43 PM80.6 °F78.8 °F94 %29.91 in10.0 miWNW (290°)4.6 mphMostly Cloudy
10:54 PM80.1 °F78.1 °F94 %29.88 in10.0 miWNW (290°)5.8 mphScattered Clouds
Hourly data recorded from PGUM, located miles away from Agana, Guam







STORIES FROM OUR PARTNERS